User: anonymous   Login
Location: Bridgewater
(44.3670°N, 64.5170°W)
Time: 22:22:12
(UTC-03:00)
Language:

OPAL - Orbit

View from above orbital plane
View from above orbital plane
View from above satellite
View from above satellite

Ground track
Ground track

The orbit data is extracted from the following two-line orbital elements,

1 26063U 00004C   15151.21961910  .00000110  00000-0  57329-4 0  9995
2 26063 100.2197 006.7593 0035810 257.4512 102.2662 14.36540143803980
Epoch (UTC): 31 May 2015 05:16:15
Eccentricity: 0.0035810
inclination: 100.2197°
perigee height: 744 km
apogee height: 795 km
right ascension of ascending node: 6.7593°
argument of perigee: 257.4512°
revolutions per day: 14.36540143
mean anomaly at epoch: 102.2662°
orbit number at epoch: 80398

The dashed part of the orbit path shows where the satellite is in the earth's shadow,  

DLR